| time (UTC) | temp C | wind direction | speed KPH | gust KPH | rain 1hr cm | rain 24hr cm | rain mn cm | humidity % | barometer mb |
| 20260502163602 | 7 | 82 | 3.2 | 11.3 | 0.00 | 0.00 | 0.00 | 55 | 1018.9 |
| 20260502162601 | 7 | 321 | 8.0 | 14.5 | 0.00 | 0.00 | 0.00 | 59 | 1018.8 |
| 20260502161601 | 7 | 328 | 4.8 | 16.1 | 0.00 | 0.00 | 0.00 | 56 | 1019.0 |
| 20260502160557 | 7 | 232 | 8.0 | 11.3 | 0.00 | 0.00 | 0.00 | 58 | 1019.1 |
| 20260502151524 | 6 | 247 | 6.4 | 9.7 | 0.00 | 0.00 | 0.00 | 58 | 1019.3 |
| 20260502150519 | 6 | 254 | 12.9 | 24.1 | 0.00 | 0.00 | 0.00 | 58 | 1019.1 |
| 20260502130457 | 4 | 317 | 4.8 | 12.9 | 0.00 | 0.00 | 0.00 | 78 | 1019.7 |
| 20260502123451 | 3 | 270 | 3.2 | 8.0 | 0.00 | 0.00 | 0.00 | 83 | 1020.0 |
| 20260502122450 | 2 | 331 | 0.0 | 8.0 | 0.00 | 0.00 | 0.00 | 84 | 1019.9 |
| 20260502121445 | 2 | 11 | 0.0 | 6.4 | 0.00 | 0.00 | 0.00 | 84 | 1020.0 |
| 20260502120444 | 2 | 4 | 3.2 | 8.0 | 0.00 | 0.00 | 0.00 | 84 | 1020.0 |
| 20260502115444 | 1 | 312 | 3.2 | 6.4 | 0.00 | 0.00 | 0.00 | 85 | 1019.7 |
| 20260502114443 | 1 | 357 | 3.2 | 9.7 | 0.00 | 0.00 | 0.00 | 85 | 1019.9 |
| 20260502113443 | 1 | 252 | 4.8 | 11.3 | 0.00 | 0.00 | 0.00 | 86 | 1019.8 |
| 20260502112439 | 1 | 285 | 1.6 | 4.8 | 0.00 | 0.00 | 0.00 | 86 | 1019.7 |
| 20260502111439 | 0 | 255 | 0.0 | 4.8 | 0.00 | 0.00 | 0.00 | 87 | 1019.6 |
| 20260502110434 | 0 | 283 | 1.6 | 3.2 | 0.00 | 0.00 | 0.00 | 89 | 1019.7 |
| 20260502105434 | 0 | 350 | 0.0 | 3.2 | 0.00 | 0.00 | 0.00 | 90 | 1019.4 |
| 20260502104429 | 0 | 280 | 0.0 | 6.4 | 0.00 | 0.00 | 0.00 | 91 | 1019.4 |
| 20260502103424 | -1 | 278 | 0.0 | 0.0 | 0.00 | 0.00 | 0.00 | 92 | 1019.2 |
| 20260502102423 | -1 | 23 | 0.0 | 0.0 | 0.00 | 0.00 | 0.00 | 92 | 1019.4 |
| 20260502101419 | -1 | 276 | 0.0 | 0.0 | 0.00 | 0.00 | 0.00 | 92 | 1019.3 |
| 20260502100416 | -1 | 194 | 0.0 | 0.0 | 0.00 | 0.00 | 0.00 | 92 | 1019.4 |
| 20260502091401 | 0 | 246 | 0.0 | 3.2 | 0.00 | 0.00 | 0.00 | 88 | 1019.2 |
| 20260502090401 | 0 | 270 | 0.0 | 0.0 | 0.00 | 0.00 | 0.00 | 87 | 1019.3 |
| 20260502071336 | 2 | 0 | 0.0 | 1.6 | 0.00 | 0.00 | 0.00 | 79 | 1019.0 |
| 20260502070332 | 2 | 262 | 0.0 | 1.6 | 0.00 | 0.00 | 0.00 | 78 | 1018.8 |
| 20260502065329 | 2 | 0 | 0.0 | 0.0 | 0.00 | 0.00 | 0.00 | 77 | 1019.0 |
| 20260502064324 | 2 | 345 | 3.2 | 3.2 | 0.00 | 0.00 | 0.00 | 77 | 1019.0 |
| 20260502063319 | 2 | 277 | 0.0 | 3.2 | 0.00 | 0.00 | 0.00 | 76 | 1019.2 |
| 20260502062319 | 2 | 306 | 0.0 | 4.8 | 0.00 | 0.00 | 0.00 | 75 | 1019.2 |
| 20260502061315 | 3 | 285 | 1.6 | 4.8 | 0.00 | 0.00 | 0.00 | 75 | 1019.1 |
| 20260502060312 | 3 | 257 | 3.2 | 9.7 | 0.00 | 0.00 | 0.00 | 73 | 1018.9 |
| 20260502055308 | 3 | 246 | 1.6 | 8.0 | 0.00 | 0.00 | 0.00 | 72 | 1019.2 |
| 20260502054304 | 3 | 270 | 1.6 | 3.2 | 0.00 | 0.00 | 0.00 | 70 | 1018.8 |
| 20260502053304 | 3 | 315 | 3.2 | 6.4 | 0.00 | 0.00 | 0.00 | 68 | 1018.7 |
| 20260502052300 | 3 | 307 | 3.2 | 6.4 | 0.00 | 0.00 | 0.00 | 68 | 1019.0 |
| 20260502051256 | 4 | 0 | 0.0 | 8.0 | 0.00 | 0.00 | 0.00 | 67 | 1018.9 |
| 20260502050254 | 4 | 0 | 3.2 | 4.8 | 0.00 | 0.00 | 0.00 | 66 | 1018.8 |
| 20260502045254 | 4 | 340 | 4.8 | 6.4 | 0.00 | 0.00 | 0.00 | 65 | 1018.5 |
| 20260502044253 | 4 | 348 | 3.2 | 4.8 | 0.00 | 0.00 | 0.00 | 65 | 1018.7 |
| 20260502043248 | 4 | 0 | 0.0 | 6.4 | 0.00 | 0.00 | 0.00 | 66 | 1018.7 |
| 20260502042245 | 4 | 3 | 0.0 | 8.0 | 0.00 | 0.00 | 0.00 | 65 | 1018.6 |
| 20260502041240 | 4 | 0 | 1.6 | 4.8 | 0.00 | 0.00 | 0.00 | 66 | 1018.4 |
| 20260502040239 | 4 | 346 | 0.0 | 3.2 | 0.00 | 0.00 | 0.00 | 65 | 1018.5 |
| 20260502035238 | 4 | 356 | 3.2 | 6.4 | 0.00 | 0.00 | 0.00 | 65 | 1018.6 |
| 20260502034233 | 4 | 289 | 3.2 | 4.8 | 0.00 | 0.00 | 0.00 | 65 | 1018.4 |
| 20260502033229 | 4 | 5 | 3.2 | 4.8 | 0.00 | 0.00 | 0.00 | 65 | 1018.4 |
| 20260502032227 | 5 | 336 | 6.4 | 6.4 | 0.00 | 0.00 | 0.00 | 64 | 1018.3 |
| 20260502031223 | 5 | 0 | 3.2 | 6.4 | 0.00 | 0.00 | 0.00 | 63 | 1018.3 |
| 20260502030219 | 5 | 357 | 3.2 | 9.7 | 0.00 | 0.00 | 0.00 | 63 | 1018.2 |
| 20260502025219 | 5 | 356 | 6.4 | 8.0 | 0.00 | 0.00 | 0.00 | 62 | 1018.4 |
| 20260502024215 | 5 | 1 | 8.0 | 8.0 | 0.00 | 0.00 | 0.00 | 65 | 1018.4 |
| 20260502023215 | 5 | 251 | 0.0 | 1.6 | 0.00 | 0.00 | 0.00 | 66 | 1017.9 |
| 20260502022215 | 5 | 324 | 3.2 | 3.2 | 0.00 | 0.00 | 0.00 | 64 | 1018.1 |
| 20260502021210 | 5 | 325 | 1.6 | 4.8 | 0.00 | 0.00 | 0.00 | 64 | 1018.1 |
| 20260502020210 | 5 | 0 | 1.6 | 4.8 | 0.00 | 0.00 | 0.00 | 64 | 1018.0 |
| 20260502015209 | 5 | 2 | 4.8 | 4.8 | 0.00 | 0.00 | 0.00 | 62 | 1018.1 |
| 20260502014204 | 5 | 346 | 1.6 | 4.8 | 0.00 | 0.00 | 0.00 | 62 | 1018.0 |
| 20260502013201 | 5 | 348 | 3.2 | 4.8 | 0.00 | 0.00 | 0.00 | 62 | 1017.9 |
| 20260502012157 | 5 | 0 | 1.6 | 4.8 | 0.00 | 0.00 | 0.00 | 62 | 1017.6 |
| 20260502011155 | 5 | 315 | 6.4 | 6.4 | 0.00 | 0.00 | 0.00 | 61 | 1017.7 |
| 20260502010154 | 5 | 270 | 1.6 | 6.4 | 0.00 | 0.00 | 0.00 | 61 | 1017.6 |
| 20260502005150 | 5 | 342 | 0.0 | 8.0 | 0.00 | 0.00 | 0.00 | 61 | 1017.5 |
| 20260502004148 | 5 | 0 | 4.8 | 11.3 | 0.00 | 0.00 | 0.00 | 60 | 1017.5 |
| 20260502003143 | 6 | 339 | 4.8 | 9.7 | 0.00 | 0.00 | 0.00 | 60 | 1017.3 |
| 20260502002143 | 6 | 334 | 6.4 | 8.0 | 0.00 | 0.00 | 0.00 | 61 | 1017.5 |
| 20260502001143 | 6 | 331 | 4.8 | 16.1 | 0.00 | 0.00 | 0.00 | 59 | 1017.3 |
| 20260502000139 | 6 | 14 | 3.2 | 9.7 | 0.00 | 0.00 | 0.00 | 60 | 1017.2 |
| 20260501235136 | 6 | 293 | 4.8 | 6.4 | 0.00 | 0.00 | 0.00 | 59 | 1017.1 |
| 20260501234135 | 6 | 346 | 1.6 | 6.4 | 0.00 | 0.00 | 0.00 | 60 | 1016.8 |
| 20260501233130 | 6 | 19 | 6.4 | 14.5 | 0.00 | 0.00 | 0.00 | 60 | 1016.8 |
| 20260501232129 | 6 | 0 | 3.2 | 8.0 | 0.00 | 0.00 | 0.00 | 60 | 1016.9 |
| 20260501231125 | 6 | 320 | 4.8 | 11.3 | 0.00 | 0.00 | 0.00 | 61 | 1016.8 |
| 20260501230121 | 6 | 0 | 3.2 | 11.3 | 0.00 | 0.00 | 0.00 | 59 | 1016.8 |
| 20260501225120 | 7 | 0 | 4.8 | 6.4 | 0.00 | 0.00 | 0.00 | 58 | 1016.8 |
| 20260501224120 | 7 | 345 | 4.8 | 9.7 | 0.00 | 0.00 | 0.00 | 57 | 1016.6 |
| 20260501223119 | 7 | 14 | 11.3 | 16.1 | 0.00 | 0.00 | 0.00 | 57 | 1016.6 |
| 20260501222118 | 7 | 341 | 9.7 | 9.7 | 0.00 | 0.00 | 0.00 | 56 | 1016.5 |
| 20260501221118 | 7 | 337 | 6.4 | 14.5 | 0.00 | 0.00 | 0.00 | 55 | 1016.2 |
| 20260501220119 | 7 | 330 | 3.2 | 6.4 | 0.00 | 0.00 | 0.00 | 57 | 1016.3 |
| 20260501215116 | 7 | 282 | 1.6 | 12.9 | 0.00 | 0.00 | 0.00 | 57 | 1016.3 |
| 20260501214113 | 7 | 337 | 12.9 | 14.5 | 0.00 | 0.00 | 0.00 | 55 | 1016.2 |
| 20260501213112 | 7 | 335 | 6.4 | 14.5 | 0.00 | 0.00 | 0.00 | 55 | 1016.2 |
| 20260501212111 | 7 | 339 | 12.9 | 12.9 | 0.00 | 0.00 | 0.00 | 54 | 1016.0 |
| 20260501211111 | 7 | 352 | 4.8 | 9.7 | 0.00 | 0.00 | 0.00 | 56 | 1016.1 |
| 20260501210110 | 8 | 180 | 3.2 | 12.9 | 0.00 | 0.00 | 0.00 | 56 | 1015.7 |
| 20260501205110 | 7 | 353 | 0.0 | 9.7 | 0.00 | 0.00 | 0.00 | 54 | 1016.0 |
| 20260501204109 | 7 | 330 | 4.8 | 11.3 | 0.00 | 0.00 | 0.00 | 56 | 1015.9 |
| 20260501203103 | 8 | 270 | 4.8 | 11.3 | 0.00 | 0.00 | 0.00 | 57 | 1015.9 |
| 20260501202102 | 8 | 237 | 9.7 | 12.9 | 0.00 | 0.00 | 0.00 | 57 | 1015.8 |
| 20260501201101 | 8 | 287 | 3.2 | 6.4 | 0.00 | 0.00 | 0.00 | 54 | 1015.8 |
| 20260501200056 | 8 | 317 | 8.0 | 8.0 | 0.00 | 0.00 | 0.00 | 57 | 1015.8 |
| 20260501195055 | 7 | 252 | 4.8 | 8.0 | 0.00 | 0.00 | 0.00 | 56 | 1015.9 |
| 20260501194052 | 7 | 246 | 4.8 | 8.0 | 0.00 | 0.00 | 0.00 | 60 | 1015.7 |
| 20260501193049 | 7 | 310 | 3.2 | 11.3 | 0.00 | 0.00 | 0.00 | 59 | 1015.8 |
| 20260501192049 | 7 | 262 | 4.8 | 11.3 | 0.00 | 0.00 | 0.00 | 57 | 1015.9 |
| 20260501191048 | 7 | 285 | 6.4 | 11.3 | 0.00 | 0.00 | 0.00 | 59 | 1015.7 |
| 20260501190045 | 8 | 322 | 8.0 | 12.9 | 0.00 | 0.00 | 0.00 | 62 | 1015.8 |
| 20260501185043 | 8 | 292 | 6.4 | 16.1 | 0.00 | 0.00 | 0.00 | 59 | 1015.7 |
| 20260501184039 | 7 | 353 | 3.2 | 6.4 | 0.00 | 0.00 | 0.00 | 59 | 1015.7 |
| 20260501183039 | 7 | 148 | 3.2 | 6.4 | 0.00 | 0.00 | 0.00 | 59 | 1015.4 |
| 20260501182039 | 7 | 90 | 3.2 | 8.0 | 0.00 | 0.00 | 0.00 | 60 | 1015.8 |
| 20260501181038 | 7 | 282 | 4.8 | 8.0 | 0.00 | 0.00 | 0.00 | 62 | 1015.5 |
| 20260501180038 | 7 | 311 | 4.8 | 6.4 | 0.00 | 0.00 | 0.00 | 62 | 1015.4 |
| 20260501175037 | 7 | 327 | 3.2 | 6.4 | 0.00 | 0.00 | 0.00 | 64 | 1015.7 |
| 20260501174032 | 7 | 247 | 8.0 | 9.7 | 0.00 | 0.00 | 0.00 | 62 | 1015.9 |
| 20260501173032 | 7 | 253 | 4.8 | 6.4 | 0.00 | 0.00 | 0.00 | 62 | 1015.9 |